Location: Cabo di Oristano
(39.8500°N, 8.4333°E)
Time: 16:31:47
(UTC+00:00)

Cosmos 44 Rocket - Pass Details

Date: 31 January 2023
Orbit: 646 x 742 km, 65.1° (Epoch: 01 April)

Event Time Altitude Azimuth Distance (km) Brightness Sun altitude
Exits shadow 05:02:24 32° 297° (WNW) 1,216 4.0 -18.1°
Maximum altitude 05:04:17 48° 244° (WSW) 942 3.6 -17.7°
Drops below altitude 10° 05:09:10 10° 171° (S) 2,227 6.1 -16.8°
Sets 05:11:37 0° 166° (SSE) 3,153 7.0 -16.4°
